FW7345 Weather Reports


Display with metric or nautical units.
time (UTC)temp
F
wind
direction
speed
MPH
gust
MPH
rain 1hr
in
rain 24hr
in
rain mn
in
humidity
%
barometer
mb
20260831224603 95 125 2.0 8.0 0.00 0.00 0.00 58 1013.3
20260831223103 95 104 2.0 10.0 0.00 0.00 0.00 60 1013.5
20260831221559 95 48 3.0 10.0 0.00 0.00 0.00 60 1013.7
20260831220111 95 172 1.0 7.0 0.00 0.00 0.00 64 1013.5
20260831214625 96 169 1.0 7.0 0.00 0.00 0.00 62 1013.8
20260831213057 96 124 3.0 8.0 0.00 0.00 0.00 62 1013.8
20260831211558 97 161 2.0 9.0 0.00 0.00 0.00 60 1013.9
20260831204603 98 250 3.0 8.0 0.00 0.00 0.00 55 1014.0
20260831203059 98 165 2.0 7.0 0.00 0.00 0.00 56 1014.3
20260831201605 96 0 1.0 9.0 0.00 0.00 0.00 56 1014.4
20260831200112 98 79 0.0 5.0 0.00 0.00 0.00 56 1014.5
20260831194559 99 243 0.0 4.0 0.00 0.00 0.00 54 1014.8
20260831193105 97 169 0.0 5.0 0.00 0.00 0.00 56 1014.9
20260831191602 96 72 1.0 6.0 0.00 0.00 0.00 57 1015.1
20260831190115 96 0 0.0 5.0 0.00 0.00 0.00 59 1015.4
20260831184558 94 141 3.0 6.0 0.00 0.00 0.00 63 1015.6
20260831183107 95 0 0.0 5.0 0.00 0.00 0.00 62 1015.7
20260831181604 95 79 1.0 4.0 0.00 0.00 0.00 60 1015.9
20260831180108 96 91 1.0 3.0 0.00 0.00 0.00 58 1016.2
20260831174610 95 164 0.0 6.0 0.00 0.00 0.00 59 1016.2
20260831173106 94 0 0.0 3.0 0.00 0.00 0.00 61 1016.3
20260831171606 93 0 0.0 0.0 0.00 0.00 0.00 68 1016.6
20260831164609 92 0 0.0 0.0 0.00 0.00 0.00 72 1016.6
20260831163059 92 0 0.0 0.0 0.00 0.00 0.00 74 1016.6
20260831161558 91 0 0.0 0.0 0.00 0.00 0.00 77 1016.7
20260831160105 90 0 0.0 0.0 0.00 0.00 0.00 76 1016.7
20260831154630 89 0 0.0 0.0 0.00 0.00 0.00 83 1016.7
20260831153108 89 0 0.0 0.0 0.00 0.00 0.00 83 1016.7
20260831151602 88 0 0.0 0.0 0.00 0.00 0.00 87 1016.7
20260831150100 86 0 0.0 0.0 0.00 0.00 0.00 92 1016.5
20260831144607 83 0 0.0 0.0 0.00 0.00 0.00 99 1016.5
20260831143110 81 0 0.0 0.0 0.00 0.00 0.00 100 1016.4
20260831141605 80 0 0.0 0.0 0.00 0.00 0.00 100 1016.3
20260831140106 79 0 0.0 0.0 0.00 0.00 0.00 100 1016.4
20260831134604 78 0 0.0 0.0 0.00 0.00 0.00 100 1016.2
20260831133106 77 0 0.0 0.0 0.00 0.00 0.00 100 1016.1
20260831131602 75 0 0.0 0.0 0.00 0.00 0.00 100 1016.1
20260831130115 74 0 0.0 0.0 0.00 0.00 0.00 100 1015.9
20260831124603 73 0 0.0 0.0 0.00 0.00 0.00 100 1015.7
20260831123100 72 0 0.0 0.0 0.00 0.00 0.00 100 1015.4
20260831121601 72 0 0.0 0.0 0.00 0.00 0.00 100 1015.3
20260831120111 72 0 0.0 0.0 0.00 0.00 0.00 100 1015.1
20260831114612 73 0 0.0 0.0 0.00 0.00 0.00 100 1015.3
20260831113137 0 0.0 0.0 0.00 0.00 0.00 1015.1
20260831111600 73 0 0.0 0.0 0.00 0.00 0.00 99 1015.0
20260831104607 73 0 0.0 0.0 0.00 0.00 0.00 99 1014.9
20260831103118 73 0 0.0 0.0 0.00 0.00 0.00 99 1015.0
20260831101606 74 0 0.0 0.0 0.00 0.00 0.00 99 1015.2
20260831100104 74 0 0.0 0.0 0.00 0.00 0.00 99 1015.0
20260831094601 74 0 0.0 0.0 0.00 0.00 0.00 99 1015.0
20260831093113 74 0 0.0 0.0 0.00 0.00 0.00 99 1015.0
20260831091602 74 0 0.0 0.0 0.00 0.00 0.00 99 1014.9
20260831090110 74 0 0.0 0.0 0.00 0.00 0.00 99 1014.9
20260831084559 74 0 0.0 0.0 0.00 0.00 0.00 99 1015.0
20260831083102 74 0 0.0 0.0 0.00 0.00 0.00 99 1015.1
20260831081610 75 0 0.0 0.0 0.00 0.00 0.00 99 1015.0
20260831074600 75 0 0.0 0.0 0.00 0.00 0.00 99 1015.3
20260831073104 75 0 0.0 0.0 0.00 0.00 0.00 98 1015.3
20260831071601 75 0 0.0 0.0 0.00 0.00 0.00 98 1015.3
20260831070105 75 0 0.0 0.0 0.00 0.00 0.00 98 1015.4
20260831064609 75 0 0.0 0.0 0.00 0.00 0.00 98 1015.6
20260831063100 75 0 0.0 0.0 0.00 0.00 0.00 98 1015.6
20260831061608 76 0 0.0 0.0 0.00 0.00 0.00 97 1015.7
20260831054614 76 0 0.0 0.0 0.00 0.00 0.00 96 1015.6
20260831053104 77 0 0.0 0.0 0.00 0.00 0.00 96 1015.5
20260831051611 77 0 0.0 0.0 0.00 0.00 0.00 95 1015.4
20260831050106 78 0 0.0 0.0 0.00 0.00 0.00 93 1015.4
20260831044612 79 0 0.0 0.0 0.00 0.00 0.00 92 1015.3
20260831043105 79 0 0.0 1.0 0.00 0.00 0.00 91 1015.4
20260831041604 79 0 0.0 1.0 0.00 0.00 0.00 91 1015.2
20260831040101 79 0 0.0 1.0 0.00 0.00 0.00 90 1015.2
20260831034607 80 0 0.0 0.0 0.00 0.00 0.00 88 1015.0
20260831033107 81 0 0.0 1.0 0.00 0.00 0.00 87 1014.7
20260831031603 82 0 0.0 3.0 0.00 0.00 0.00 86 1014.6
20260831030106 82 135 0.0 3.0 0.00 0.00 0.00 84 1014.5
20260831024602 83 78 0.0 4.0 0.00 0.00 0.00 83 1014.3
20260831023108 83 146 1.0 5.0 0.00 0.00 0.00 81 1014.1
20260831021601 84 102 1.0 5.0 0.00 0.00 0.00 81 1013.9
20260831014607 84 115 1.0 5.0 0.00 0.00 0.00 80 1013.6
20260831013112 86 0 0.0 4.0 0.00 0.00 0.00 77 1013.6
20260831011604 87 0 1.0 5.0 0.00 0.00 0.00 75 1013.4
20260831004600 88 203 2.0 7.0 0.00 0.00 0.00 72 1013.3
20260831003111 89 110 1.0 5.0 0.00 0.00 0.00 70 1013.2
20260831001604 90 167 2.0 8.0 0.00 0.00 0.00 69 1013.1
20260831000107 91 197 0.0 3.0 0.00 0.00 0.00 69 1013.1
20260830234612 92 117 1.0 8.0 0.00 0.00 0.00 67 1013.2
20260830233106 93 118 1.0 7.0 0.00 0.00 0.00 67 1013.1
20260830231603 94 219 2.0 6.0 0.00 0.00 0.00 62 1013.2